#timestamp,LO_Frequency,Hit,StdDev 
1644055215.4,286047003.9,N
1644055235.2,286047001.5,N
1644055255.1,286047002.0,N
1644055256.0,286047002.0,N
1644055275.8,286046999.9,N
1644055295.7,286046998.3,N
1644055315.5,286047002.4,N
1644055335.3,286047000.5,N
1644055355.2,286046999.3,N
1644055375.0,286046997.5,N
1644055375.9,286046997.5,N
1644055395.8,286046998.0,N
1644055415.6,286046997.2,N
1644055435.4,286046996.7,N
1644055455.3,286046996.1,N
1644055475.1,286046996.6,N
1644055495.8,286046997.3,N
1644055515.7,286046997.4,N
1644055535.5,286046999.5,N
1644055555.4,286046999.1,N
1644055575.2,286047001.1,N
1644055595.0,286047001.9,N
1644055595.9,286047001.9,N
1644055615.8,286047003.2,N
1644055635.6,286047001.6,N
1644055655.4,286046999.8,N
1644055675.3,286046999.8,N
1644055695.1,286046998.7,N
1644055715.9,286047000.4,N
1644055735.7,286046998.4,N
1644055755.5,286047000.8,N
1644055775.4,286047000.4,N
1644055795.2,286046999.7,N
1644055815.0,286046998.3,N
1644055815.9,286046998.3,N
1644055835.8,286047000.1,N
1644055855.6,286047002.8,N
1644055875.5,286047000.0,N
1644055895.3,286047000.0,N
1644055915.1,286046999.9,N
1644055935.9,286047002.8,N
1644055955.7,286047000.8,N
1644055975.5,286046998.9,N
1644055995.4,286046998.9,N
1644056015.2,286046996.1,N
1644056035.1,286046996.4,N
1644056036.0,286046996.4,N
1644056055.8,286046999.3,N
1644056075.6,286046998.2,N
1644056095.5,286046999.5,N
1644056115.3,286047000.6,N
1644056135.2,286046998.9,N
1644056155.9,286047000.2,N
1644056175.7,286047001.5,N
1644056195.6,286046999.9,N
1644056215.4,286047000.5,N
1644056235.2,286046999.3,N
1644056255.1,286046999.6,N
1644056256.0,286047011.9,Y
1644056275.8,286046995.2,P
1644056295.7,286046993.4,P
1644056315.5,286046996.3,N
1644056335.3,286046995.9,N
1644056355.2,286046993.6,Y
1644056375.0,286047000.7,P
1644056375.9,286047000.7,N
1644056395.8,286047001.9,N
1644056415.6,286047004.0,N
1644056435.4,286047003.1,N
1644056455.3,286047002.0,N
1644056475.1,286046998.8,N
1644056495.8,286046996.8,N
1644056515.7,286046998.7,N
1644056535.5,286047001.5,N
1644056555.4,286047006.0,N
1644056575.2,286047006.0,N
1644056595.0,286047006.1,N
1644056595.9,286047006.1,N
1644056615.8,286047006.1,N
1644056635.6,286047008.9,N
1644056655.4,286047008.4,N
1644056675.3,286047007.7,N
1644056695.1,286047006.9,N
1644056715.9,286047009.0,N
1644056735.7,286047008.1,N
1644056755.5,286047008.8,N
1644056775.4,286047006.6,N
1644056795.2,286047006.6,N
1644056815.1,286047006.3,N
1644056816.0,286047006.3,N
1644056835.8,286047011.7,Y
1644056855.6,286047006.5,P
1644056875.5,286047005.3,P
1644056895.3,286047004.8,P
1644056915.2,286047004.6,Y
1644056935.9,286046996.7,P
1644056955.7,286046999.1,N
1644056975.6,286046996.8,N
1644056995.4,286046996.6,N
1644057015.2,286046999.0,N
1644057035.1,286046999.9,N
1644057036.0,286046999.9,N
1644057055.8,286047000.4,N
1644057075.7,286046997.4,N
1644057095.5,286046999.3,N
1644057115.3,286046996.7,N
1644057135.2,286046998.4,N
1644057155.0,286047002.3,N
1644057155.9,286047002.3,N
1644057175.8,286047002.4,N
1644057195.6,286046997.3,N
1644057215.4,286046996.4,N
1644057235.3,286046997.9,N
1644057255.1,286046997.3,N
1644057275.8,286046996.4,N
1644057295.7,286046997.8,N
1644057315.5,286046997.2,N
1644057335.4,286046997.8,N
1644057355.2,286046999.2,N
1644057375.0,286047001.8,N
1644057375.9,286047001.8,N
1644057395.8,286047001.4,N
1644057415.6,286047002.8,N
1644057435.5,286047002.8,N
1644057455.3,286047002.1,N
1644057475.1,286047002.8,N
1644057495.9,286047000.7,N
1644057515.7,286047000.4,N
1644057535.5,286047001.0,N
1644057555.4,286047003.9,N
1644057575.2,286047001.3,N
1644057595.1,286047004.9,N
1644057596.0,286047004.9,N
1644057615.8,286047007.1,N
1644057635.6,286047002.9,N
1644057655.5,286047002.0,N
1644057675.3,286047005.3,N
1644057695.1,286047005.8,N
1644057715.9,286047004.4,N
1644057735.7,286047004.8,N
1644057755.6,286047001.3,N
1644057775.4,286046999.7,N
1644057795.2,286047001.5,N
1644057815.1,286047001.7,N
1644057816.0,286047001.7,N
1644057835.8,286047001.4,N
1644057855.6,286047001.7,N
1644057875.5,286047004.3,N
1644057895.3,286047003.9,N
1644057915.2,286047006.6,Y
1644057935.9,286047001.3,P
1644057955.7,286047001.5,N
1644057975.6,286047002.1,P
1644057995.4,286047002.5,Y
1644058015.3,286046998.6,P
1644058035.1,286046999.9,N
1644058036.0,286046999.9,N
1644058055.8,286047002.7,N
1644058075.7,286047002.0,N
1644058095.5,286047000.1,N
1644058115.3,286046999.9,N
1644058135.2,286047000.1,N
1644058155.0,286047002.3,N
1644058155.9,286047002.3,N
1644058175.8,286047003.0,N
1644058195.6,286047005.6,Y
1644058215.4,286047007.2,P
1644058235.3,286047004.6,N
1644058255.1,286047003.4,N
1644058275.8,286047005.2,N
1644058295.7,286047010.3,Y
1644058315.5,286047003.9,P
1644058335.4,286047003.1,P
1644058355.2,286047002.3,P
1644058375.0,286047001.0,N
1644058375.9,286047001.0,N
1644058395.8,286046998.2,N
1644058415.6,286046999.0,N
1644058435.4,286047000.8,N
1644058455.3,286046998.7,N
1644058475.1,286046998.7,N
1644058495.9,286046997.3,N
1644058515.7,286046999.6,N
1644058535.5,286047000.4,N
1644058555.4,286047000.7,N
1644058575.2,286046999.0,N
1644058595.0,286047000.8,N
1644058595.9,286047000.8,N
1644058615.8,286046996.6,N
1644058635.6,286046996.5,N
1644058655.5,286046999.2,N
1644058675.3,286046996.6,N
1644058695.1,286046998.0,N
1644058715.9,286046999.3,N
1644058735.7,286047000.3,N
1644058755.5,286046998.2,N
1644058775.4,286047001.0,N
1644058795.2,286047002.3,N
